Location: Copeville
(33.0796°N, 96.4155°W)
Time: 01:03:45
(UTC+00:00)

Sich 1 - Pass Details

Date: 04 July 2022
Orbit: 593 x 622 km, 82.5° (Epoch: 16 August)

Event Time Altitude Azimuth Distance (km) Brightness Sun altitude
Exits shadow 10:39:33 11° 237° (WSW) 1,900 4.9 -8.4°
Maximum altitude 10:42:33 20° 283° (WNW) 1,411 4.5 -7.9°
Drops below altitude 10° 10:45:43 10° 331° (NNW) 1,943 5.7 -7.3°
Sets 10:48:26 0° 349° (NNW) 2,845 6.8 -6.9°
